Hauptseite
METAR-TAF:

METAR-TAF

Flughäfen :

Corrientes, Argentinien

Breite: 27-27S, Länge: 058-46W, Höhe: 62 m

Beobachtung

Neuester Wetterbericht von vor 33 Minuten, um 19:00 UTC
Wind 5 kt aus Nord/Nordost
Temperatur 33°C
Luftfeuchtigkeit 41%
Luftdruck 1008 hPa
Sichtweite: 9000 m
Leicht bewölkt in der Höhe von 4300 ft
Aufgelockert bewölkt in der Höhe von 20000 ft

METAR: SARC 211900Z 02005KT 9000 FEW043 SCT200 33/18 Q1008

Zeit: 16:33 (19:33 UTC)


TAF: fehlend

Wetterbeobachtungen und Prognosen von mehr als 4000 Flughäfen (METAR und TAF Bericht).

Die verfügbaren Stationen werden durch gelbe und rote Markierungen auf der Karte dargestellt.

Führen Sie die Maus auf sie, um den Namen der Station zu sehen.

Darauf klicken, um die Beobachtung von Wetterbeobachtungen und Prognosen zu sehen.

Um die Karte zu ändern : klicken Sie auf den grünen Tasten mit einem schwarzen Kreuz Zum Vergrößern, auf den grünen Button mit einem Gedankenstrich zu verkleinern, oder auf die grünen Pfeile für benachbarte Karten.


METAR-TAF: